Regional Weather Roundup
Issued by NWS Goodland, KS

Home | Current Version | Previous Version | Text Only | Print | Product List | Glossary Off
Versions: 1 2 3 4 5 6 7 8 9 10 11 12 13 14 15 16 17 18 19 20 21 22 23 24 25 26 27 28 29 30 31 32 33 34 35 36 37 38 39 40 41 42 43 44 45 46 47 48 49 50

000
ASUS43 KGLD 182359
RWRGLD

GOODLAND FORECAST AREA HOURLY WEATHER ROUNDUP
NATIONAL WEATHER SERVICE GOODLAND KS
500 PM MST SAT NOV 18 2017

...OFFICIAL OBSERVATIONS...

CITY           SKY/WX    TMP DP  RH WIND       PRES   REMARKS
GOODLAND KS    CLEAR     34  14  43 NW8       30.22S
HILL CITY KS   CLEAR     42  21  43 NW7       30.23R
IMPERIAL NEB   CLEAR     39  15  37 W7        30.21R
MCCOOK NEB     CLEAR     38  21  50 NW7       30.21R
AKRON CO       CLEAR     34  13  41 W3        30.21R
BURLINGTON CO  CLEAR     35  13  40 W3        30.23S
LIMON CO       CLEAR     32  13  45 S5        30.22F
$$

...UNOFFICIAL OBSERVATIONS...

CITY           SKY/WX    TMP DP  RH WIND       PRES   REMARKS
LENORA KS        N/A     41  32  70 NW6         N/A
NORTON KS      CLEAR     37  16  41 W8        30.20
SHARON SPRINGS   N/A     40  15  36 NW10        N/A
TRENTON NEB      N/A     37  32  82 NW5         N/A
KIT CARSON CO    N/A     43  15  31 CALM        N/A
YUMA CO        FAIR      36  16  44 NW6       30.22R
$$




USA.gov is the U.S. government's official web portal to all federal, state and local government web resources and services.